Oskaloosa, IA

8:19 AM CDT on August 22, 2017 (GMT -0500)
Oskaloosa Municipal

Weather History for KOOA - October, 2013

Change the Weather History Date:

Tuesday, October 8, 2013

  Actual Average (KOTM) Record (KOTM)
Temperature  
Mean Temperature 61 °F -  
Max Temperature 77 °F 66 °F 92 °F (1938)
Min Temperature 46 °F 46 °F 25 °F (2000)
Degree Days  
Heating Degree Days 4    
Growing Degree Days 11 (Base 50)    
Moisture  
Dew Point 42 °F    
Average Humidity 58    
Maximum Humidity 84    
Minimum Humidity 24    
Precipitation  
Precipitation 0.00 in - - ()
Sea Level Pressure  
Sea Level Pressure 30.08 in    
Wind  
Wind Speed 8 mph (South)    
Max Wind Speed 16 mph    
Max Gust Speed 24 mph    
Visibility 10 miles    
Events      
Averages and records for this station are not official NWS values.
T = Trace of Precipitation, MM = Missing Value Source: NWS Daily Summary

Daily Weather History Graph

Daily Weather History Graph

Search for Another Location

Airport or City:

Trip Planner

Search our weather history database for the weather conditions in past years. The results will help you decide how hot, cold, wet, or windy it might be!

Date:

Astronomy

Oct. 08, 2013 Rise Set
Actual Time 7:14 AM CDT 6:39 PM CDT
Civil Twilight 6:46 AM CDT 7:07 PM CDT
Nautical Twilight 6:14 AM CDT 7:39 PM CDT
Astronomical Twilight 5:42 AM CDT 8:11 PM CDT
Moon 11:11 AM CDT (10/8) 9:14 PM CDT (10/8)
Length of Visible Light 12h 20m
Length of Day
11h 25m
Waxing Crescent, 16% of the Moon is Illuminated
Oct 8
Waxing Crescent
Oct 11
First Quarter
Oct 18
Full
Oct 26
Last Quarter
Nov 3
New

Hourly Weather History & Observations

Time (CDT) Temp. Dew Point Humidity Pressure Visibility Wind Dir Wind Speed Gust Speed Precip Events Conditions
12:15 AM 50.5 °F 44.2 °F 79% 30.08 in 10.0 mi SSW 5.8 mph - N/A   Clear
12:35 AM 50.0 °F 44.2 °F 81% 30.08 in 10.0 mi SSW 5.8 mph - N/A   Clear
12:55 AM 50.0 °F 44.1 °F 80% 30.08 in 10.0 mi SSW 5.8 mph - N/A   Clear
1:15 AM 50.0 °F 43.9 °F 79% 30.08 in 10.0 mi SSW 5.8 mph - N/A   Clear
1:35 AM 49.5 °F 43.9 °F 81% 30.08 in 10.0 mi SSW 5.8 mph - N/A   Clear
1:55 AM 49.1 °F 43.7 °F 82% 30.09 in 10.0 mi SSW 5.8 mph - N/A   Clear
2:15 AM 49.1 °F 43.7 °F 82% 30.09 in 10.0 mi SSW 5.8 mph - N/A   Clear
2:35 AM 49.5 °F 43.7 °F 81% 30.08 in 10.0 mi SSW 5.8 mph - N/A   Clear
2:55 AM 49.1 °F 43.5 °F 81% 30.08 in 10.0 mi SSW 5.8 mph - N/A   Clear
3:15 AM 49.6 °F 43.3 °F 79% 30.08 in 10.0 mi SSW 5.8 mph - N/A   Clear
3:35 AM 50.0 °F 43.3 °F 78% 30.09 in 10.0 mi SSW 6.9 mph - N/A   Clear
3:55 AM 49.5 °F 43.0 °F 78% 30.09 in 10.0 mi SSW 5.8 mph - N/A   Clear
4:15 AM 49.1 °F 42.8 °F 79% 30.09 in 10.0 mi SSW 5.8 mph - N/A   Clear
4:35 AM 49.1 °F 42.8 °F 79% 30.09 in 10.0 mi SSW 5.8 mph - N/A   Clear
4:55 AM 48.2 °F 42.6 °F 81% 30.10 in 10.0 mi SSW 5.8 mph - N/A   Clear
5:15 AM 48.2 °F 42.4 °F 80% 30.10 in 10.0 mi South 5.8 mph - N/A   Clear
5:35 AM 47.3 °F 41.9 °F 82% 30.10 in 10.0 mi South 6.9 mph - N/A   Clear
5:55 AM 47.3 °F 42.3 °F 83% 30.10 in 10.0 mi SSW 5.8 mph - N/A   Clear
6:15 AM 47.5 °F 42.3 °F 82% 30.10 in 10.0 mi SSW 5.8 mph - N/A   Clear
6:35 AM 46.6 °F 41.9 °F 84% 30.10 in 10.0 mi SSW 4.6 mph - N/A   Clear
6:55 AM 47.3 °F 42.1 °F 82% 30.11 in 10.0 mi SSW 4.6 mph - N/A   Clear
7:15 AM 47.3 °F 41.9 °F 82% 30.11 in 10.0 mi SSW 5.8 mph - N/A   Clear
7:35 AM 48.4 °F 42.6 °F 80% 30.11 in 10.0 mi SSW 6.9 mph - N/A   Clear
7:55 AM 48.7 °F 42.8 °F 80% 30.12 in 10.0 mi SSW 5.8 mph - N/A   Clear
8:15 AM 51.8 °F 43.9 °F 74% 30.12 in 10.0 mi SSW 4.6 mph - N/A   Clear
8:35 AM 54.3 °F 44.6 °F 70% 30.12 in 10.0 mi SSW 5.8 mph - N/A   Clear
8:55 AM 56.7 °F 44.8 °F 64% 30.12 in 10.0 mi SSW 6.9 mph - N/A   Clear
9:15 AM 59.0 °F 44.8 °F 59% 30.12 in 10.0 mi SSW 8.1 mph - N/A   Clear
9:35 AM 60.8 °F 44.6 °F 55% 30.11 in 10.0 mi SSW 6.9 mph - N/A   Clear
9:55 AM 62.8 °F 44.8 °F 52% 30.12 in 10.0 mi SSW 6.9 mph - N/A   Clear
10:15 AM 64.4 °F 44.8 °F 49% 30.12 in 10.0 mi SW 8.1 mph - N/A   Clear
10:35 AM 66.0 °F 44.4 °F 46% 30.12 in 10.0 mi SW 11.5 mph - N/A   Clear
10:55 AM 68.2 °F 44.2 °F 42% 30.11 in 10.0 mi South 11.5 mph - N/A   Clear
11:15 AM 70.7 °F 43.3 °F 37% 30.11 in 10.0 mi South 15.0 mph 19.6 mph N/A   Clear
11:35 AM 71.6 °F 42.8 °F 35% 30.11 in 10.0 mi South 6.9 mph 16.1 mph N/A   Clear
11:55 AM 72.5 °F 41.5 °F 33% 30.11 in 10.0 mi South 13.8 mph 18.4 mph N/A   Clear
12:15 PM 73.2 °F 40.3 °F 30% 30.10 in 10.0 mi South 15.0 mph 19.6 mph N/A   Clear
12:35 PM 73.8 °F 39.6 °F 29% 30.10 in 10.0 mi South 12.7 mph 19.6 mph N/A   Clear
12:55 PM 74.5 °F 38.3 °F 27% 30.09 in 10.0 mi South 13.8 mph 23.0 mph N/A   Clear
1:15 PM 75.2 °F 38.5 °F 27% 30.08 in 10.0 mi South 13.8 mph 24.2 mph N/A   Clear
1:35 PM 75.4 °F 38.1 °F 26% 30.07 in 10.0 mi SSW 13.8 mph 23.0 mph N/A   Clear
1:55 PM 76.1 °F 37.8 °F 25% 30.07 in 10.0 mi South 15.0 mph 21.9 mph N/A   Clear
2:15 PM 76.3 °F 37.9 °F 25% 30.07 in 10.0 mi South 16.1 mph 24.2 mph N/A   Clear
2:35 PM 76.3 °F 37.0 °F 24% 30.06 in 10.0 mi South 16.1 mph 23.0 mph N/A   Clear
2:55 PM 76.5 °F 37.6 °F 25% 30.05 in 10.0 mi South 15.0 mph 23.0 mph N/A   Clear
3:15 PM 76.6 °F 38.5 °F 25% 30.05 in 10.0 mi SSW 13.8 mph 17.3 mph N/A   Clear
3:35 PM 76.5 °F 38.3 °F 25% 30.05 in 10.0 mi South 16.1 mph 23.0 mph N/A   Clear
3:55 PM 76.5 °F 38.5 °F 25% 30.05 in 10.0 mi South 16.1 mph 21.9 mph N/A   Clear
4:15 PM 76.1 °F 38.5 °F 26% 30.05 in 10.0 mi South 11.5 mph 20.7 mph N/A   Clear
4:35 PM 75.7 °F 38.8 °F 26% 30.04 in 10.0 mi SSW 15.0 mph 20.7 mph N/A   Clear
4:55 PM 75.2 °F 39.2 °F 27% 30.04 in 10.0 mi South 11.5 mph 19.6 mph N/A   Clear
5:15 PM 74.3 °F 41.0 °F 30% 30.04 in 10.0 mi South 12.7 mph 17.3 mph N/A   Clear
5:35 PM 73.4 °F 40.3 °F 30% 30.04 in 10.0 mi South 15.0 mph 20.7 mph N/A   Clear
5:55 PM 72.3 °F 39.6 °F 30% 30.04 in 10.0 mi South 11.5 mph 17.3 mph N/A   Clear
6:15 PM 70.5 °F 40.3 °F 33% 30.04 in 10.0 mi South 9.2 mph - N/A   Clear
6:35 PM 66.9 °F 41.7 °F 40% 30.04 in 10.0 mi South 5.8 mph - N/A   Clear
6:55 PM 62.1 °F 43.2 °F 50% 30.05 in 10.0 mi South 6.9 mph - N/A   Clear
7:15 PM 60.4 °F 44.1 °F 55% 30.05 in 10.0 mi SSE 5.8 mph - N/A   Clear
7:35 PM 59.5 °F 43.9 °F 56% 30.05 in 10.0 mi SSE 5.8 mph - N/A   Clear
7:55 PM 57.4 °F 44.2 °F 62% 30.06 in 10.0 mi SSE 5.8 mph - N/A   Clear
8:15 PM 57.9 °F 44.6 °F 61% 30.06 in 10.0 mi SSE 6.9 mph - N/A   Clear
8:35 PM 58.5 °F 44.8 °F 60% 30.06 in 10.0 mi SSE 6.9 mph - N/A   Clear
8:55 PM 56.3 °F 45.0 °F 66% 30.07 in 10.0 mi SSE 5.8 mph - N/A   Clear
9:15 PM 56.7 °F 45.1 °F 65% 30.07 in 10.0 mi SSE 8.1 mph - N/A   Clear
9:35 PM 57.2 °F 45.1 °F 64% 30.07 in 10.0 mi SSE 6.9 mph - N/A   Clear
9:55 PM 55.6 °F 45.0 °F 67% 30.07 in 10.0 mi SSE 6.9 mph - N/A   Clear
10:15 PM 54.7 °F 45.1 °F 70% 30.07 in 10.0 mi SSE 6.9 mph - N/A   Clear
10:35 PM 54.5 °F 45.0 °F 70% 30.07 in 10.0 mi SSE 5.8 mph - N/A   Clear
10:55 PM 54.1 °F 44.8 °F 71% 30.08 in 10.0 mi SSE 6.9 mph - N/A   Clear
11:15 PM 54.0 °F 44.8 °F 71% 30.08 in 10.0 mi SSE 5.8 mph - N/A   Clear
11:35 PM 53.1 °F 44.8 °F 73% 30.08 in 10.0 mi SSE 6.9 mph - N/A   Clear
11:55 PM 52.7 °F 44.8 °F 74% 30.08 in 10.0 mi SSE 5.8 mph - N/A   Clear